When you browse on this site, cookies collect data to enhance your experience and personalize the content and advertising you see.
Visit our Privacy Policy to learn more. By continuing to use the site, you agree to this use of cookies and data.
  • En España
  • Lista de países
  • Para 7 días
  • Temperatura del agua
  • El tiempo en el mapa
  • Informadores
  • user-avatar
    Iniciar sesión

    Tiempo cada hora Escaldes-Engordany

    Hoy, 21 Septiembre, Sábado

    Tiempo Temperatura Precipitaciones Viento Presión Humedad
    00:00 +12°C° 0 mm 2 mps 639 mmHg 93%
    01:00 +12°C° 0 mm 2 mps 639 mmHg 91%
    02:00 +12°C° 0 mm 2 mps 638 mmHg 89%
    03:00 +12°C° 0 mm 2 mps 638 mmHg 87%
    04:00 +12°C° 0 mm 2 mps 638 mmHg 86%
    05:00 +12°C° 0 mm 2 mps 638 mmHg 85%
    06:00 +12°C° 0 mm 2 mps 638 mmHg 84%
    07:00 +12°C° 0.2 mm 2 mps 638 mmHg 85%
    08:00 +13°C° 0.2 mm 2 mps 638 mmHg 86%
    09:00 +13°C° 0.2 mm 2 mps 638 mmHg 88%
    10:00 +15°C° 0.1 mm 2 mps 639 mmHg 79%
    11:00 +17°C° 0.1 mm 2 mps 639 mmHg 71%
    12:00 +19°C° 0.1 mm 2 mps 639 mmHg 63%
    13:00 +18°C° 0.6 mm 2 mps 639 mmHg 66%
    14:00 +18°C° 0.6 mm 2 mps 638 mmHg 69%
    15:00 +18°C° 0.6 mm 2 mps 638 mmHg 72%
    16:00 +16°C° 0.6 mm 2 mps 637 mmHg 79%
    17:00 +15°C° 0.6 mm 2 mps 637 mmHg 85%
    18:00 +13°C° 0.6 mm 1 mps 636 mmHg 91%
    19:00 +13°C° 0 mm 1 mps 636 mmHg 91%
    20:00 +12°C° 0 mm 1 mps 636 mmHg 91%
    21:00 +12°C° 0 mm 1 mps 636 mmHg 91%
    22:00 +12°C° 0 mm 1 mps 636 mmHg 90%
    23:00 +12°C° 0 mm 1 mps 636 mmHg 90%

    Mañana, 22 Septiembre, Domingo

    Tiempo Temperatura Precipitaciones Viento Presión Humedad
    00:00 +12°C° 0 mm 2 mps 636 mmHg 89%
    01:00 +12°C° 0 mm 2 mps 636 mmHg 89%
    02:00 +12°C° 0 mm 2 mps 635 mmHg 88%
    03:00 +12°C° 0 mm 2 mps 635 mmHg 87%
    04:00 +12°C° 0 mm 1 mps 635 mmHg 88%
    05:00 +11°C° 0 mm 1 mps 635 mmHg 89%
    06:00 +11°C° 0 mm 1 mps 635 mmHg 89%
    07:00 +13°C° 0 mm 1 mps 636 mmHg 85%
    08:00 +15°C° 0 mm 1 mps 637 mmHg 80%
    09:00 +18°C° 0 mm 1 mps 638 mmHg 75%
    10:00 +17°C° 0.3 mm 2 mps 638 mmHg 75%
    11:00 +17°C° 0.3 mm 2 mps 638 mmHg 75%
    12:00 +18°C° 0.3 mm 2 mps 638 mmHg 75%
    13:00 +17°C° 0.6 mm 2 mps 638 mmHg 78%
    14:00 +17°C° 0.6 mm 2 mps 638 mmHg 81%
    15:00 +16°C° 0.6 mm 2 mps 638 mmHg 85%
    16:00 +15°C° 0.4 mm 1 mps 638 mmHg 88%
    17:00 +13°C° 0.4 mm 1 mps 638 mmHg 92%
    18:00 +12°C° 0.4 mm 1 mps 637 mmHg 96%
    19:00 +12°C° 0.1 mm 1 mps 638 mmHg 96%
    20:00 +11°C° 0.1 mm 1 mps 638 mmHg 96%
    21:00 +11°C° 0.1 mm 1 mps 639 mmHg 96%
    22:00 +11°C° 0 mm 1 mps 639 mmHg 95%
    23:00 +11°C° 0 mm 1 mps 639 mmHg 95%

    Pasado mañana, 23 Septiembre, Lunes

    Tiempo Temperatura Precipitaciones Viento Presión Humedad
    00:00 +11°C° 0 mm 1 mps 639 mmHg 95%
    01:00 +9°C° 0 mm 0 mps 639 mmHg 95%
    02:00 +9°C° 0 mm 0 mps 639 mmHg 95%
    03:00 +9°C° 0 mm 0 mps 639 mmHg 95%
    04:00 +9°C° 0 mm 0 mps 639 mmHg 95%
    05:00 +9°C° 0 mm 0 mps 639 mmHg 95%
    06:00 +8°C° 0 mm 0 mps 639 mmHg 96%
    07:00 +11°C° 0 mm 1 mps 640 mmHg 87%
    08:00 +12°C° 0 mm 1 mps 641 mmHg 78%
    09:00 +14°C° 0 mm 1 mps 641 mmHg 69%
    10:00 +15°C° 0 mm 1 mps 642 mmHg 62%
    11:00 +16°C° 0 mm 2 mps 642 mmHg 54%
    12:00 +17°C° 0 mm 2 mps 642 mmHg 47%
    13:00 +17°C° 0 mm 2 mps 642 mmHg 47%
    14:00 +17°C° 0 mm 2 mps 641 mmHg 48%
    15:00 +17°C° 0 mm 2 mps 641 mmHg 49%
    16:00 +15°C° 0 mm 1 mps 640 mmHg 57%
    17:00 +13°C° 0 mm 1 mps 640 mmHg 66%
    18:00 +11°C° 0 mm 1 mps 639 mmHg 74%
    19:00 +11°C° 0 mm 1 mps 639 mmHg 73%
    20:00 +11°C° 0 mm 1 mps 639 mmHg 72%
    21:00 +10°C° 0 mm 1 mps 639 mmHg 71%
    22:00 +11°C° 0 mm 1 mps 639 mmHg 69%
    23:00 +11°C° 0 mm 1 mps 639 mmHg 67%

    24 Septiembre, Martes

    Tiempo Temperatura Precipitaciones Viento Presión Humedad
    00:00 +11°C° 0 mm 1 mps 639 mmHg 65%
    01:00 +11°C° 0 mm 1 mps 638 mmHg 65%
    02:00 +11°C° 0 mm 1 mps 638 mmHg 64%
    03:00 +11°C° 0 mm 1 mps 638 mmHg 63%
    04:00 +11°C° 0 mm 1 mps 638 mmHg 63%
    05:00 +11°C° 0 mm 1 mps 638 mmHg 64%
    06:00 +11°C° 0 mm 1 mps 637 mmHg 64%
    07:00 +14°C° 0 mm 1 mps 639 mmHg 58%
    08:00 +18°C° 0 mm 1 mps 640 mmHg 53%
    09:00 +21°C° 0 mm 1 mps 641 mmHg 47%
    10:00 +21°C° 0 mm 1 mps 641 mmHg 46%
    11:00 +21°C° 0 mm 2 mps 641 mmHg 44%
    12:00 +23°C° 0 mm 2 mps 642 mmHg 42%
    13:00 +23°C° 0 mm 2 mps 641 mmHg 44%
    14:00 +21°C° 0 mm 3 mps 641 mmHg 46%
    15:00 +21°C° 0 mm 3 mps 640 mmHg 48%
    16:00 +19°C° 0 mm 2 mps 639 mmHg 58%
    17:00 +16°C° 0 mm 2 mps 639 mmHg 67%
    18:00 +14°C° 0 mm 1 mps 638 mmHg 77%
    19:00 +13°C° 0 mm 1 mps 638 mmHg 79%
    20:00 +13°C° 0 mm 1 mps 638 mmHg 80%
    21:00 +12°C° 0 mm 1 mps 638 mmHg 82%
    22:00 +12°C° 0 mm 1 mps 638 mmHg 84%
    23:00 +11°C° 0 mm 1 mps 637 mmHg 86%

    25 Septiembre, Miércoles

    Tiempo Temperatura Precipitaciones Viento Presión Humedad
    00:00 +11°C° 0 mm 1 mps 637 mmHg 87%
    01:00 +11°C° 0 mm 1 mps 637 mmHg 89%
    02:00 +11°C° 0 mm 1 mps 637 mmHg 90%
    03:00 +10°C° 0 mm 1 mps 637 mmHg 91%
    04:00 +10°C° 0 mm 1 mps 637 mmHg 92%
    05:00 +10°C° 0 mm 1 mps 637 mmHg 92%
    06:00 +10°C° 0 mm 1 mps 637 mmHg 93%
    07:00 +11°C° 0 mm 1 mps 638 mmHg 87%
    08:00 +13°C° 0 mm 1 mps 638 mmHg 80%
    09:00 +14°C° 0 mm 1 mps 639 mmHg 74%
    10:00 +14°C° 0 mm 1 mps 639 mmHg 72%
    11:00 +15°C° 0 mm 2 mps 639 mmHg 70%
    12:00 +15°C° 0 mm 2 mps 640 mmHg 68%
    13:00 +15°C° 0 mm 2 mps 639 mmHg 69%
    14:00 +15°C° 0 mm 2 mps 639 mmHg 70%
    15:00 +14°C° 0 mm 2 mps 638 mmHg 72%
    16:00 +14°C° 0 mm 1 mps 638 mmHg 75%
    17:00 +13°C° 0 mm 1 mps 638 mmHg 79%
    18:00 +12°C° 0 mm 1 mps 638 mmHg 82%
    19:00 +11°C° 0 mm 1 mps 638 mmHg 84%
    20:00 +11°C° 0 mm 1 mps 638 mmHg 86%
    21:00 +10°C° 0 mm 1 mps 639 mmHg 88%
    22:00 +10°C° 0 mm 1 mps 639 mmHg 89%
    23:00 +10°C° 0 mm 1 mps 638 mmHg 90%

    26 Septiembre, Jueves

    Tiempo Temperatura Precipitaciones Viento Presión Humedad
    00:00 +10°C° 0 mm 1 mps 638 mmHg 92%
    01:00 +9°C° 0 mm 1 mps 638 mmHg 92%
    02:00 +9°C° 0 mm 1 mps 638 mmHg 91%
    03:00 +9°C° 0 mm 1 mps 638 mmHg 91%
    04:00 +9°C° 0 mm 1 mps 638 mmHg 91%
    05:00 +8°C° 0 mm 1 mps 638 mmHg 90%
    06:00 +8°C° 0 mm 1 mps 638 mmHg 90%
    07:00 +11°C° 0 mm 1 mps 639 mmHg 82%
    08:00 +13°C° 0 mm 1 mps 641 mmHg 73%
    09:00 +16°C° 0 mm 1 mps 642 mmHg 65%
    10:00 +16°C° 0 mm 1 mps 642 mmHg 63%
    11:00 +18°C° 0 mm 1 mps 642 mmHg 60%
    12:00 +18°C° 0 mm 1 mps 642 mmHg 57%
    13:00 +18°C° 0 mm 1 mps 642 mmHg 61%
    14:00 +18°C° 0 mm 1 mps 642 mmHg 64%
    15:00 +16°C° 0 mm 1 mps 641 mmHg 67%
    16:00 +15°C° 0.1 mm 1 mps 641 mmHg 73%
    17:00 +14°C° 0.1 mm 1 mps 641 mmHg 80%
    18:00 +13°C° 0.1 mm 1 mps 641 mmHg 86%
    19:00 +13°C° 0 mm 1 mps 641 mmHg 88%
    20:00 +12°C° 0 mm 1 mps 641 mmHg 90%
    21:00 +11°C° 0 mm 1 mps 641 mmHg 92%
    22:00 +11°C° 0 mm 1 mps 641 mmHg 93%
    23:00 +11°C° 0 mm 1 mps 641 mmHg 93%
    Mostrar más